| time (UTC) | temp C | wind direction | speed KPH | gust KPH | rain 1hr cm | rain 24hr cm | rain mn cm | humidity % | barometer mb |
| 20260508142241 | 23 | 158 | 4.8 | 11.3 | 0.00 | 0.00 | 0.00 | 41 | 1015.8 |
| 20260508141742 | 24 | 158 | 3.2 | 11.3 | 0.00 | 0.00 | 0.00 | 41 | 1015.8 |
| 20260508140740 | 23 | 68 | 1.6 | 9.7 | 0.00 | 0.00 | 0.00 | 40 | 1015.9 |
| 20260508140241 | 23 | 158 | 3.2 | 9.7 | 0.00 | 0.00 | 0.00 | 39 | 1015.8 |
| 20260508135741 | 25 | 158 | 4.8 | 8.0 | 0.00 | 0.00 | 0.00 | 39 | 1015.9 |
| 20260508134741 | 25 | 135 | 0.0 | 3.2 | 0.00 | 0.00 | 0.00 | 39 | 1016.1 |
| 20260508134241 | 25 | 135 | 0.0 | 0.0 | 0.00 | 0.00 | 0.00 | 40 | 1016.1 |
| 20260508133741 | 25 | 135 | 0.0 | 0.0 | 0.00 | 0.00 | 0.00 | 41 | 1016.2 |
| 20260508133242 | 25 | 135 | 1.6 | 6.4 | 0.00 | 0.00 | 0.00 | 42 | 1016.2 |
| 20260508132741 | 25 | 23 | 3.2 | 9.7 | 0.00 | 0.00 | 0.00 | 42 | 1016.4 |
| 20260508132242 | 24 | 135 | 1.6 | 9.7 | 0.00 | 0.00 | 0.00 | 42 | 1016.4 |
| 20260508131741 | 23 | 135 | 0.0 | 3.2 | 0.00 | 0.00 | 0.00 | 42 | 1016.6 |
| 20260508131242 | 23 | 158 | 0.0 | 3.2 | 0.00 | 0.00 | 0.00 | 42 | 1016.6 |
| 20260508130741 | 24 | 158 | 3.2 | 6.4 | 0.00 | 0.00 | 0.00 | 42 | 1016.7 |
| 20260508130241 | 25 | 158 | 4.8 | 6.4 | 0.00 | 0.00 | 0.00 | 42 | 1016.6 |
| 20260508125742 | 25 | 135 | 1.6 | 6.4 | 0.00 | 0.00 | 0.00 | 43 | 1016.6 |
| 20260508125241 | 24 | 113 | 0.0 | 3.2 | 0.00 | 0.00 | 0.00 | 43 | 1016.7 |
| 20260508124242 | 23 | 180 | 8.0 | 11.3 | 0.00 | 0.00 | 0.00 | 42 | 1017.0 |
| 20260508123742 | 23 | 158 | 6.4 | 11.3 | 0.00 | 0.00 | 0.00 | 42 | 1016.9 |
| 20260508123242 | 23 | 158 | 4.8 | 8.0 | 0.00 | 0.00 | 0.00 | 41 | 1016.9 |
| 20260508122242 | 25 | 135 | 3.2 | 6.4 | 0.00 | 0.00 | 0.00 | 41 | 1017.1 |
| 20260508121742 | 25 | 158 | 3.2 | 9.7 | 0.00 | 0.00 | 0.00 | 40 | 1017.2 |
| 20260508120742 | 26 | 135 | 3.2 | 6.4 | 0.00 | 0.00 | 0.00 | 40 | 1017.0 |
| 20260508115742 | 26 | 158 | 1.6 | 6.4 | 0.00 | 0.00 | 0.00 | 40 | 1017.0 |
| 20260508113243 | 25 | 135 | 4.8 | 6.4 | 0.00 | 0.00 | 0.00 | 42 | 1017.2 |
| 20260508112742 | 25 | 135 | 4.8 | 6.4 | 0.00 | 0.00 | 0.00 | 41 | 1017.1 |
| 20260508112242 | 25 | 158 | 1.6 | 4.8 | 0.00 | 0.00 | 0.00 | 42 | 1017.1 |
| 20260508111244 | 25 | 158 | 3.2 | 6.4 | 0.00 | 0.00 | 0.00 | 43 | 1017.3 |
| 20260508105743 | 23 | 203 | 3.2 | 11.3 | 0.00 | 0.00 | 0.00 | 45 | 1017.5 |
| 20260508105243 | 22 | 135 | 0.0 | 0.0 | 0.00 | 0.00 | 0.00 | 47 | 1017.4 |
| 20260508104743 | 22 | 158 | 3.2 | 9.7 | 0.00 | 0.00 | 0.00 | 46 | 1017.5 |
| 20260508104243 | 22 | 180 | 4.8 | 9.7 | 0.00 | 0.00 | 0.00 | 48 | 1017.5 |
| 20260508103743 | 22 | 180 | 1.6 | 6.4 | 0.00 | 0.00 | 0.00 | 48 | 1017.5 |
| 20260508102743 | 21 | 158 | 4.8 | 11.3 | 0.00 | 0.00 | 0.00 | 47 | 1017.8 |
| 20260508101743 | 21 | 158 | 8.0 | 11.3 | 0.00 | 0.00 | 0.00 | 49 | 1017.8 |
| 20260508101243 | 21 | 135 | 3.2 | 11.3 | 0.00 | 0.00 | 0.00 | 47 | 1017.7 |
| 20260508100743 | 21 | 158 | 1.6 | 6.4 | 0.00 | 0.00 | 0.00 | 49 | 1017.9 |
| 20260508095743 | 21 | 135 | 1.6 | 6.4 | 0.00 | 0.00 | 0.00 | 48 | 1018.0 |
| 20260508095243 | 21 | 158 | 0.0 | 0.0 | 0.00 | 0.00 | 0.00 | 49 | 1018.0 |
| 20260508094744 | 21 | 158 | 0.0 | 0.0 | 0.00 | 0.00 | 0.00 | 52 | 1018.1 |
| 20260508094244 | 20 | 180 | 0.0 | 0.0 | 0.00 | 0.00 | 0.00 | 53 | 1018.1 |
| 20260508093745 | 20 | 135 | 0.0 | 0.0 | 0.00 | 0.00 | 0.00 | 53 | 1018.3 |
| 20260508093244 | 20 | 135 | 1.6 | 6.4 | 0.00 | 0.00 | 0.00 | 55 | 1018.2 |
| 20260508092744 | 20 | 158 | 4.8 | 12.9 | 0.00 | 0.00 | 0.00 | 55 | 1018.2 |
| 20260508092244 | 20 | 158 | 4.8 | 12.9 | 0.00 | 0.00 | 0.00 | 54 | 1018.2 |
| 20260508091745 | 20 | 158 | 6.4 | 9.7 | 0.00 | 0.00 | 0.00 | 54 | 1018.1 |
| 20260508091244 | 20 | 158 | 6.4 | 9.7 | 0.00 | 0.00 | 0.00 | 54 | 1018.3 |
| 20260508090744 | 20 | 135 | 0.0 | 3.2 | 0.00 | 0.00 | 0.00 | 55 | 1018.2 |
| 20260508085745 | 20 | 158 | 4.8 | 9.7 | 0.00 | 0.00 | 0.00 | 55 | 1018.0 |
| 20260508084745 | 20 | 158 | 1.6 | 4.8 | 0.00 | 0.00 | 0.00 | 55 | 1018.1 |
| 20260508084244 | 20 | 158 | 1.6 | 6.4 | 0.00 | 0.00 | 0.00 | 55 | 1018.1 |
| 20260508083744 | 20 | 135 | 3.2 | 6.4 | 0.00 | 0.00 | 0.00 | 55 | 1018.1 |
| 20260508083244 | 20 | 135 | 3.2 | 8.0 | 0.00 | 0.00 | 0.00 | 56 | 1018.0 |
| 20260508082745 | 20 | 135 | 0.0 | 0.0 | 0.00 | 0.00 | 0.00 | 58 | 1018.1 |
| 20260508082245 | 20 | 135 | 0.0 | 0.0 | 0.00 | 0.00 | 0.00 | 59 | 1018.0 |
| 20260508081744 | 20 | 158 | 0.0 | 0.0 | 0.00 | 0.00 | 0.00 | 61 | 1018.2 |
| 20260508081245 | 18 | 158 | 0.0 | 0.0 | 0.00 | 0.00 | 0.00 | 61 | 1018.0 |
| 20260508080245 | 18 | 180 | 0.0 | 6.4 | 0.00 | 0.00 | 0.00 | 64 | 1018.0 |
| 20260508075745 | 18 | 158 | 0.0 | 0.0 | 0.00 | 0.00 | 0.00 | 66 | 1018.2 |
| 20260508075245 | 18 | 158 | 0.0 | 0.0 | 0.00 | 0.00 | 0.00 | 70 | 1017.9 |
| 20260508074745 | 17 | 158 | 0.0 | 0.0 | 0.00 | 0.00 | 0.00 | 72 | 1018.0 |
| 20260508074245 | 16 | 0 | 0.0 | 0.0 | 0.00 | 0.00 | 0.00 | 75 | 1017.9 |
| 20260508073745 | 15 | 45 | 0.0 | 0.0 | 0.00 | 0.00 | 0.00 | 75 | 1018.0 |
| 20260508073246 | 15 | 23 | 0.0 | 0.0 | 0.00 | 0.00 | 0.00 | 76 | 1018.1 |
| 20260508072745 | 14 | 23 | 0.0 | 0.0 | 0.00 | 0.00 | 0.00 | 78 | 1018.1 |
| 20260508072246 | 13 | 23 | 0.0 | 0.0 | 0.00 | 0.00 | 0.00 | 78 | 1018.0 |
| 20260508071745 | 13 | 23 | 0.0 | 0.0 | 0.00 | 0.00 | 0.00 | 79 | 1018.0 |
| 20260508070745 | 13 | 158 | 0.0 | 0.0 | 0.00 | 0.00 | 0.00 | 81 | 1017.9 |
| 20260508070245 | 12 | 23 | 0.0 | 0.0 | 0.00 | 0.00 | 0.00 | 81 | 1018.0 |
| 20260508065246 | 12 | 23 | 0.0 | 0.0 | 0.00 | 0.00 | 0.00 | 81 | 1018.0 |
| 20260508064746 | 12 | 23 | 0.0 | 0.0 | 0.00 | 0.00 | 0.00 | 82 | 1018.0 |
| 20260508064246 | 11 | 23 | 0.0 | 0.0 | 0.00 | 0.00 | 0.00 | 83 | 1018.0 |
| 20260508063746 | 11 | 23 | 0.0 | 0.0 | 0.00 | 0.00 | 0.00 | 83 | 1018.0 |
| 20260508063247 | 11 | 23 | 0.0 | 0.0 | 0.00 | 0.00 | 0.00 | 84 | 1017.9 |
| 20260508062746 | 11 | 23 | 0.0 | 0.0 | 0.00 | 0.00 | 0.00 | 85 | 1017.9 |
| 20260508062246 | 11 | 0 | 0.0 | 0.0 | 0.00 | 0.00 | 0.00 | 85 | 1018.0 |
| 20260508061747 | 11 | 0 | 0.0 | 0.0 | 0.00 | 0.00 | 0.00 | 86 | 1017.9 |
| 20260508061246 | 10 | 23 | 1.6 | 6.4 | 0.00 | 0.00 | 0.00 | 86 | 1017.9 |
| 20260508060746 | 10 | 0 | 1.6 | 6.4 | 0.00 | 0.00 | 0.00 | 87 | 1017.8 |
| 20260508060247 | 10 | 23 | 0.0 | 0.0 | 0.00 | 0.00 | 0.00 | 87 | 1017.8 |
| 20260508054747 | 8 | 23 | 1.6 | 3.2 | 0.00 | 0.00 | 0.00 | 88 | 1017.6 |
| 20260508054247 | 8 | 23 | 0.0 | 3.2 | 0.00 | 0.00 | 0.00 | 87 | 1017.9 |
| 20260508053747 | 7 | 23 | 0.0 | 0.0 | 0.00 | 0.00 | 0.00 | 87 | 1017.8 |
| 20260508053247 | 7 | 23 | 0.0 | 0.0 | 0.00 | 0.00 | 0.00 | 87 | 1017.7 |
| 20260508052747 | 6 | 315 | 0.0 | 0.0 | 0.00 | 0.00 | 0.00 | 87 | 1017.8 |
| 20260508052247 | 6 | 315 | 0.0 | 0.0 | 0.00 | 0.00 | 0.00 | 87 | 1017.6 |
| 20260508051748 | 6 | 315 | 0.0 | 0.0 | 0.00 | 0.00 | 0.00 | 87 | 1017.8 |
| 20260508051248 | 6 | 315 | 0.0 | 0.0 | 0.00 | 0.00 | 0.00 | 87 | 1017.7 |
| 20260508050748 | 5 | 315 | 0.0 | 0.0 | 0.00 | 0.00 | 0.00 | 87 | 1017.9 |
| 20260508050248 | 5 | 315 | 0.0 | 0.0 | 0.00 | 0.00 | 0.00 | 86 | 1017.8 |
| 20260508045747 | 5 | 315 | 0.0 | 0.0 | 0.00 | 0.00 | 0.00 | 86 | 1017.7 |
| 20260508045247 | 5 | 315 | 0.0 | 0.0 | 0.00 | 0.00 | 0.00 | 86 | 1017.5 |
| 20260508044747 | 4 | 315 | 0.0 | 0.0 | 0.00 | 0.00 | 0.00 | 86 | 1017.8 |
| 20260508044247 | 4 | 315 | 0.0 | 0.0 | 0.00 | 0.00 | 0.00 | 85 | 1017.5 |
| 20260508043747 | 4 | 315 | 0.0 | 0.0 | 0.00 | 0.00 | 0.00 | 85 | 1017.7 |
| 20260508043247 | 3 | 315 | 0.0 | 0.0 | 0.00 | 0.00 | 0.00 | 85 | 1017.5 |
| 20260508042747 | 3 | 315 | 0.0 | 0.0 | 0.00 | 0.00 | 0.00 | 85 | 1017.6 |
| 20260508042247 | 3 | 315 | 0.0 | 0.0 | 0.00 | 0.00 | 0.00 | 85 | 1017.5 |
| 20260508041747 | 3 | 315 | 0.0 | 0.0 | 0.00 | 0.00 | 0.00 | 85 | 1017.6 |
| 20260508041247 | 3 | 315 | 0.0 | 0.0 | 0.00 | 0.00 | 0.00 | 85 | 1017.4 |
| 20260508040747 | 3 | 315 | 0.0 | 0.0 | 0.00 | 0.00 | 0.00 | 85 | 1017.4 |
| 20260508035749 | 3 | 315 | 0.0 | 0.0 | 0.00 | 0.00 | 0.00 | 85 | 1017.4 |
| 20260508035248 | 3 | 315 | 0.0 | 0.0 | 0.00 | 0.00 | 0.00 | 85 | 1017.6 |
| 20260508034748 | 3 | 315 | 0.0 | 0.0 | 0.00 | 0.00 | 0.00 | 85 | 1017.5 |
| 20260508033748 | 3 | 315 | 0.0 | 0.0 | 0.00 | 0.00 | 0.00 | 85 | 1017.5 |
| 20260508032248 | 3 | 315 | 0.0 | 0.0 | 0.00 | 0.00 | 0.00 | 85 | 1017.4 |
| 20260508030749 | 4 | 315 | 0.0 | 0.0 | 0.00 | 0.00 | 0.00 | 85 | 1017.3 |
| 20260508030248 | 4 | 315 | 0.0 | 0.0 | 0.00 | 0.00 | 0.00 | 84 | 1017.3 |
| 20260508025748 | 4 | 315 | 0.0 | 0.0 | 0.00 | 0.00 | 0.00 | 84 | 1017.4 |
| 20260508024748 | 5 | 315 | 0.0 | 0.0 | 0.00 | 0.00 | 0.00 | 84 | 1017.4 |
| 20260508024249 | 5 | 315 | 0.0 | 0.0 | 0.00 | 0.00 | 0.00 | 84 | 1017.1 |
| 20260508023749 | 5 | 315 | 0.0 | 0.0 | 0.00 | 0.00 | 0.00 | 84 | 1017.1 |
| 20260508023248 | 5 | 315 | 0.0 | 0.0 | 0.00 | 0.00 | 0.00 | 84 | 1017.1 |
| 20260508022749 | 5 | 315 | 0.0 | 0.0 | 0.00 | 0.00 | 0.00 | 84 | 1016.9 |
| 20260508022249 | 5 | 315 | 0.0 | 0.0 | 0.00 | 0.00 | 0.00 | 84 | 1017.1 |
| 20260508021751 | 5 | 315 | 0.0 | 0.0 | 0.00 | 0.00 | 0.00 | 84 | 1017.1 |
| 20260508021249 | 5 | 315 | 0.0 | 0.0 | 0.00 | 0.00 | 0.00 | 83 | 1017.0 |
| 20260508015749 | 5 | 315 | 0.0 | 0.0 | 0.00 | 0.00 | 0.00 | 83 | 1016.8 |
| 20260508014749 | 5 | 315 | 0.0 | 0.0 | 0.00 | 0.00 | 0.00 | 83 | 1017.0 |
| 20260508014249 | 5 | 315 | 0.0 | 0.0 | 0.00 | 0.00 | 0.00 | 83 | 1017.0 |
| 20260508013250 | 5 | 315 | 0.0 | 0.0 | 0.00 | 0.00 | 0.00 | 83 | 1016.9 |
| 20260508012750 | 5 | 315 | 0.0 | 0.0 | 0.00 | 0.00 | 0.00 | 83 | 1016.9 |
| 20260508010750 | 5 | 315 | 0.0 | 0.0 | 0.00 | 0.00 | 0.00 | 82 | 1016.7 |
| 20260508010248 | 5 | 315 | 0.0 | 0.0 | 0.00 | 0.00 | 0.00 | 82 | 1016.6 |
| 20260508005750 | 5 | 315 | 0.0 | 0.0 | 0.00 | 0.00 | 0.00 | 82 | 1016.6 |
| 20260508004751 | 5 | 315 | 0.0 | 0.0 | 0.00 | 0.00 | 0.00 | 81 | 1016.6 |
| 20260508003251 | 6 | 315 | 0.0 | 0.0 | 0.00 | 0.00 | 0.00 | 81 | 1016.7 |
| 20260508001753 | 6 | 315 | 0.0 | 0.0 | 0.00 | 0.00 | 0.00 | 80 | 1017.0 |
| 20260508001250 | 6 | 315 | 0.0 | 0.0 | 0.00 | 0.00 | 0.00 | 80 | 1016.8 |
| 20260507235750 | 6 | 315 | 0.0 | 0.0 | 0.00 | 0.00 | 0.00 | 80 | 1017.0 |
| 20260507233252 | 7 | 315 | 0.0 | 0.0 | 0.00 | 0.00 | 0.00 | 79 | 1017.1 |
| 20260507232751 | 7 | 315 | 0.0 | 0.0 | 0.00 | 0.00 | 0.00 | 79 | 1017.1 |
| 20260507232251 | 7 | 315 | 0.0 | 0.0 | 0.00 | 0.00 | 0.00 | 79 | 1017.3 |
| 20260507231753 | 7 | 315 | 0.0 | 0.0 | 0.00 | 0.00 | 0.00 | 78 | 1017.1 |
| 20260507231251 | 7 | 315 | 0.0 | 0.0 | 0.00 | 0.00 | 0.00 | 78 | 1017.4 |
| 20260507230253 | 7 | 315 | 0.0 | 0.0 | 0.00 | 0.00 | 0.00 | 77 | 1017.4 |
| 20260507225252 | 8 | 315 | 0.0 | 0.0 | 0.00 | 0.00 | 0.00 | 76 | 1017.4 |
| 20260507224255 | 8 | 315 | 0.0 | 0.0 | 0.00 | 0.00 | 0.00 | 76 | 1017.4 |
| 20260507221751 | 9 | 315 | 0.0 | 0.0 | 0.00 | 0.00 | 0.00 | 75 | 1017.2 |
| 20260507214752 | 10 | 315 | 0.0 | 0.0 | 0.00 | 0.00 | 0.00 | 73 | 1017.5 |
| 20260507211252 | 11 | 315 | 0.0 | 0.0 | 0.00 | 0.00 | 0.00 | 70 | 1017.4 |
| 20260507204752 | 12 | 315 | 0.0 | 0.0 | 0.00 | 0.00 | 0.00 | 70 | 1017.1 |
| 20260507204253 | 12 | 315 | 0.0 | 0.0 | 0.00 | 0.00 | 0.00 | 69 | 1017.3 |
| 20260507200753 | 12 | 23 | 0.0 | 0.0 | 0.00 | 0.00 | 0.00 | 67 | 1017.0 |
| 20260507200253 | 12 | 315 | 0.0 | 0.0 | 0.00 | 0.00 | 0.00 | 67 | 1017.0 |
| 20260507194753 | 12 | 23 | 0.0 | 0.0 | 0.00 | 0.00 | 0.00 | 66 | 1016.7 |
| 20260507194253 | 12 | 23 | 0.0 | 0.0 | 0.00 | 0.00 | 0.00 | 66 | 1016.6 |
| 20260507193253 | 13 | 0 | 0.0 | 0.0 | 0.00 | 0.00 | 0.00 | 65 | 1016.8 |
| 20260507192754 | 13 | 23 | 0.0 | 0.0 | 0.00 | 0.00 | 0.00 | 65 | 1016.5 |
| 20260507192253 | 13 | 23 | 0.0 | 0.0 | 0.00 | 0.00 | 0.00 | 65 | 1016.2 |
| 20260507191753 | 13 | 23 | 0.0 | 0.0 | 0.00 | 0.00 | 0.00 | 65 | 1016.1 |
| 20260507190753 | 13 | 315 | 0.0 | 1.6 | 0.00 | 0.00 | 0.00 | 64 | 1016.1 |
| 20260507190253 | 13 | 293 | 1.6 | 8.0 | 0.00 | 0.00 | 0.00 | 63 | 1015.8 |
| 20260507185755 | 13 | 338 | 1.6 | 8.0 | 0.00 | 0.00 | 0.00 | 62 | 1015.6 |
| 20260507185253 | 13 | 23 | 1.6 | 6.4 | 0.00 | 0.00 | 0.00 | 62 | 1015.4 |
| 20260507184255 | 13 | 0 | 8.0 | 25.7 | 0.00 | 0.00 | 0.00 | 61 | 1015.1 |
| 20260507183754 | 14 | 0 | 11.3 | 25.7 | 0.00 | 0.00 | 0.00 | 60 | 1015.3 |
| 20260507182754 | 15 | 338 | 3.2 | 8.0 | 0.00 | 0.00 | 0.00 | 58 | 1015.1 |
| 20260507182252 | 15 | 338 | 3.2 | 14.5 | 0.00 | 0.00 | 0.00 | 58 | 1014.8 |
| 20260507181754 | 16 | 0 | 8.0 | 14.5 | 0.00 | 0.00 | 0.00 | 58 | 1014.5 |
| 20260507181254 | 16 | 0 | 9.7 | 11.3 | 0.00 | 0.00 | 0.00 | 57 | 1014.1 |
| 20260507180754 | 17 | 0 | 6.4 | 11.3 | 0.00 | 0.00 | 0.00 | 56 | 1013.9 |
| 20260507180255 | 17 | 0 | 6.4 | 11.3 | 0.00 | 0.00 | 0.00 | 56 | 1013.6 |
| 20260507175754 | 17 | 0 | 3.2 | 6.4 | 0.00 | 0.00 | 0.00 | 57 | 1013.3 |
| 20260507175255 | 17 | 158 | 1.6 | 9.7 | 0.00 | 0.00 | 0.00 | 59 | 1013.2 |
| 20260507173755 | 18 | 158 | 0.0 | 0.0 | 0.00 | 0.00 | 0.00 | 59 | 1011.9 |
| 20260507173254 | 18 | 158 | 0.0 | 0.0 | 0.00 | 0.00 | 0.00 | 59 | 1011.7 |
| 20260507172755 | 18 | 158 | 1.6 | 6.4 | 0.00 | 0.00 | 0.00 | 58 | 1011.7 |
| 20260507172255 | 18 | 158 | 0.0 | 6.4 | 0.00 | 0.00 | 0.00 | 57 | 1011.4 |
| 20260507171755 | 18 | 158 | 1.6 | 6.4 | 0.00 | 0.00 | 0.00 | 57 | 1011.3 |
| 20260507171022 | 19 | 135 | 4.8 | 11.3 | 0.00 | 0.00 | 0.00 | 56 | 1011.4 |
| 20260507170755 | 19 | 135 | 4.8 | 11.3 | 0.00 | 0.00 | 0.00 | 56 | 1011.4 |
| 20260507170255 | 19 | 158 | 6.4 | 12.9 | 0.00 | 0.00 | 0.00 | 56 | 1011.3 |
| 20260507165755 | 19 | 158 | 9.7 | 12.9 | 0.00 | 0.00 | 0.00 | 56 | 1011.2 |
| 20260507165255 | 19 | 158 | 9.7 | 12.9 | 0.00 | 0.00 | 0.00 | 57 | 1011.4 |
| 20260507163255 | 20 | 135 | 9.7 | 17.7 | 0.00 | 0.00 | 0.00 | 56 | 1011.4 |
| 20260507162756 | 20 | 158 | 8.0 | 11.3 | 0.00 | 0.00 | 0.00 | 56 | 1011.3 |
| 20260507162255 | 20 | 158 | 9.7 | 19.3 | 0.00 | 0.00 | 0.00 | 55 | 1011.3 |
| 20260507162009 | 20 | 180 | 14.5 | 19.3 | 0.00 | 0.00 | 0.00 | 55 | 1011.2 |
| 20260507161755 | 20 | 180 | 14.5 | 19.3 | 0.00 | 0.00 | 0.00 | 55 | 1011.2 |
| 20260507161256 | 20 | 158 | 14.5 | 14.5 | 0.00 | 0.00 | 0.00 | 55 | 1011.1 |
| 20260507160256 | 20 | 158 | 9.7 | 12.9 | 0.00 | 0.00 | 0.00 | 54 | 1011.0 |
| 20260507155256 | 20 | 158 | 6.4 | 9.7 | 0.00 | 0.00 | 0.00 | 54 | 1011.1 |
| 20260507153756 | 20 | 135 | 6.4 | 11.3 | 0.00 | 0.00 | 0.00 | 55 | 1011.0 |
| 20260507153257 | 20 | 135 | 8.0 | 14.5 | 0.00 | 0.00 | 0.00 | 55 | 1010.9 |
| 20260507152756 | 20 | 158 | 8.0 | 14.5 | 0.00 | 0.00 | 0.00 | 57 | 1011.1 |
| 20260507152256 | 20 | 180 | 6.4 | 11.3 | 0.00 | 0.00 | 0.00 | 58 | 1011.1 |
| 20260507151756 | 20 | 180 | 9.7 | 12.9 | 0.00 | 0.00 | 0.00 | 58 | 1011.1 |
| 20260507151256 | 20 | 135 | 11.3 | 14.5 | 0.00 | 0.00 | 0.00 | 58 | 1011.1 |
| 20260507150756 | 20 | 158 | 9.7 | 14.5 | 0.00 | 0.00 | 0.00 | 58 | 1011.0 |
| 20260507150256 | 20 | 180 | 11.3 | 17.7 | 0.00 | 0.00 | 0.00 | 58 | 1011.1 |
| 20260507145756 | 20 | 158 | 17.7 | 24.1 | 0.00 | 0.00 | 0.00 | 57 | 1011.1 |
| 20260507145256 | 20 | 158 | 14.5 | 24.1 | 0.00 | 0.00 | 0.00 | 57 | 1011.2 |
| 20260507144257 | 21 | 158 | 16.1 | 20.9 | 0.00 | 0.00 | 0.00 | 56 | 1011.1 |
| 20260507143756 | 21 | 158 | 11.3 | 20.9 | 0.00 | 0.00 | 0.00 | 56 | 1011.2 |
| 20260507143256 | 21 | 135 | 8.0 | 12.9 | 0.00 | 0.00 | 0.00 | 56 | 1011.3 |